Weather History for Centralia, IL

Change the Weather History Date:

Saturday, September 21, 2013

  Actual Average (KSLO) Record (KSLO)
Temperature  
Mean Temperature 64 °F -  
Max Temperature 75 °F 77 °F 93 °F (2010)
Min Temperature 52 °F 54 °F 36 °F (1991)
Degree Days  
Heating Degree Days 2    
Growing Degree Days 14 (Base 50)    
Moisture  
Dew Point 52 °F    
Average Humidity 69    
Maximum Humidity 93    
Minimum Humidity 40    
Precipitation  
Precipitation 0.00 in - - ()
Sea Level Pressure  
Sea Level Pressure 29.91 in    
Wind  
Wind Speed 5 mph (NW)    
Max Wind Speed 13 mph    
Max Gust Speed 20 mph    
Visibility 10 miles    
Events      
Averages and records for this station are not official NWS values.
T = Trace of Precipitation, MM = Missing Value Source: NWS Daily Summary

Daily Weather History Graph

Daily Weather History Graph

Search for Another Location

Airport:

Trip Planner

Search our weather history database for the weather conditions in past years. The results will help you decide how hot, cold, wet, or windy it might be!

Date:

Astronomy

Sep. 21, 2013 Rise Set
Actual Time 6:43 AM CDT 6:54 PM CDT
Civil Twilight 6:16 AM CDT 7:20 PM CDT
Nautical Twilight 5:45 AM CDT 7:51 PM CDT
Astronomical Twilight 5:14 AM CDT 8:23 PM CDT
Moon 8:07 PM CDT (9/21) 8:59 AM CDT (9/21)
Length of Visible Light 13h 04m
Length of Day
12h 11m
Waning Gibbous, 94% of the Moon is Illuminated
Sep 21
Waning Gibbous
Sep 26
Last Quarter
Oct 4
New
Oct 11
First Quarter
Oct 18
Full

Hourly Weather History & Observations

Time (CDT) Temp. Dew Point Humidity Pressure Visibility Wind Dir Wind Speed Gust Speed Precip Events Conditions
12:15 AM 64.4 °F 57.2 °F 77% 29.90 in 10.0 mi NNW 5.8 mph - N/A   Unknown
12:35 AM 63.9 °F 56.5 °F 77% 29.90 in 10.0 mi NNW 4.6 mph - N/A   Unknown
12:55 AM 63.7 °F 55.4 °F 74% 29.90 in 10.0 mi NNW 6.9 mph - N/A   Unknown
1:15 AM 63.0 °F 55.0 °F 75% 29.90 in 10.0 mi NNW 5.8 mph - N/A   Unknown
1:35 AM 61.9 °F 54.9 °F 78% 29.90 in 10.0 mi NNW 5.8 mph - N/A   Unknown
1:55 AM 61.2 °F 54.9 °F 80% 29.89 in 10.0 mi NNW 4.6 mph - N/A   Unknown
2:15 AM 60.1 °F 54.9 °F 83% 29.89 in 10.0 mi NW 5.8 mph - N/A   Unknown
2:35 AM 59.5 °F 54.7 °F 84% 29.89 in 10.0 mi NW 4.6 mph - N/A   Unknown
2:55 AM 59.9 °F 54.5 °F 82% 29.88 in 10.0 mi NNW 5.8 mph - N/A   Unknown
3:15 AM 59.9 °F 54.5 °F 82% 29.88 in 10.0 mi NW 4.6 mph - N/A   Unknown
3:35 AM 58.5 °F 54.5 °F 87% 29.88 in 10.0 mi NW 3.5 mph - N/A   Unknown
3:55 AM 57.9 °F 54.5 °F 88% 29.88 in 10.0 mi NW 4.6 mph - N/A   Unknown
4:15 AM 57.7 °F 54.1 °F 88% 29.89 in 10.0 mi Calm Calm - N/A   Unknown
4:35 AM 57.2 °F 53.8 °F 88% 29.88 in 10.0 mi NW 3.5 mph - N/A   Unknown
4:55 AM 56.8 °F 53.6 °F 89% 29.89 in 10.0 mi NW 3.5 mph - N/A   Unknown
5:15 AM 57.2 °F 53.6 °F 88% 29.89 in 10.0 mi NW 4.6 mph - N/A   Unknown
5:35 AM 57.2 °F 53.6 °F 88% 29.90 in 10.0 mi NW 4.6 mph - N/A   Unknown
5:55 AM 56.7 °F 53.2 °F 88% 29.90 in 10.0 mi NW 4.6 mph - N/A   Unknown
6:15 AM 56.7 °F 53.1 °F 88% 29.90 in 10.0 mi NW 4.6 mph - N/A   Unknown
6:35 AM 56.3 °F 52.9 °F 88% 29.91 in 10.0 mi NW 4.6 mph - N/A   Unknown
6:55 AM 55.9 °F 52.7 °F 89% 29.92 in 10.0 mi NW 3.5 mph - N/A   Unknown
7:15 AM 56.3 °F 53.1 °F 89% 29.92 in 10.0 mi NW 3.5 mph - N/A   Unknown
7:35 AM 57.9 °F 54.3 °F 88% 29.92 in 10.0 mi NW 4.6 mph - N/A   Unknown
7:55 AM 59.4 °F 54.3 °F 83% 29.92 in 10.0 mi NW 4.6 mph - N/A   Unknown
8:15 AM 60.8 °F 54.3 °F 79% 29.92 in 10.0 mi NW 8.1 mph - N/A   Unknown
8:35 AM 62.1 °F 54.1 °F 75% 29.93 in 10.0 mi NW 8.1 mph - N/A   Unknown
8:55 AM 63.0 °F 54.1 °F 73% 29.94 in 10.0 mi NNW 8.1 mph - N/A   Unknown
9:15 AM 63.7 °F 53.6 °F 70% 29.94 in 10.0 mi NW 9.2 mph - N/A   Unknown
9:35 AM 65.1 °F 53.6 °F 66% 29.94 in 10.0 mi NW 6.9 mph - N/A   Unknown
9:55 AM 66.0 °F 52.2 °F 61% 29.94 in 10.0 mi NNW 6.9 mph - N/A   Unknown
10:15 AM 67.6 °F 50.9 °F 55% 29.94 in 10.0 mi NNW 5.8 mph - N/A   Unknown
10:35 AM 68.5 °F 50.4 °F 52% 29.94 in 10.0 mi North 10.4 mph 16.1 mph N/A   Unknown
10:55 AM 68.9 °F 49.3 °F 50% 29.94 in 10.0 mi NNW 11.5 mph 18.4 mph N/A   Unknown
11:15 AM 69.6 °F 48.7 °F 47% 29.94 in 10.0 mi NNW 11.5 mph 17.3 mph N/A   Unknown
11:35 AM 70.0 °F 49.5 °F 48% 29.94 in 10.0 mi NNW 11.5 mph 16.1 mph N/A   Unknown
11:55 AM 70.2 °F 48.9 °F 47% 29.94 in 10.0 mi North 9.2 mph 17.3 mph N/A   Unknown
12:15 PM 71.6 °F 49.6 °F 46% 29.93 in 10.0 mi NNW 11.5 mph 17.3 mph N/A   Unknown
12:35 PM 71.8 °F 49.6 °F 45% 29.93 in 10.0 mi NW 12.7 mph 19.6 mph N/A   Unknown
12:55 PM 71.8 °F 49.3 °F 45% 29.93 in 10.0 mi NNW 10.4 mph - N/A   Unknown
1:15 PM 72.7 °F 49.3 °F 44% 29.92 in 10.0 mi NW 9.2 mph - N/A   Unknown
1:35 PM 73.0 °F 47.7 °F 40% 29.92 in 10.0 mi NNW 8.1 mph - N/A   Unknown
1:55 PM 73.4 °F 48.9 °F 42% 29.91 in 10.0 mi NNW 10.4 mph - N/A   Unknown
2:15 PM 73.6 °F 48.6 °F 41% 29.91 in 10.0 mi North 8.1 mph - N/A   Unknown
2:35 PM 72.3 °F 48.0 °F 42% 29.91 in 10.0 mi NNW 9.2 mph 18.4 mph N/A   Unknown
2:55 PM 73.8 °F 48.7 °F 41% 29.90 in 10.0 mi NW 8.1 mph 18.4 mph N/A   Unknown
3:15 PM 74.5 °F 49.6 °F 42% 29.90 in 10.0 mi NNW 9.2 mph - N/A   Unknown
3:35 PM 73.6 °F 49.5 °F 43% 29.90 in 10.0 mi NNW 9.2 mph - N/A   Unknown
3:55 PM 72.5 °F 49.8 °F 45% 29.90 in 10.0 mi Calm Calm - N/A   Unknown
4:15 PM 74.1 °F 49.3 °F 41% 29.90 in 10.0 mi NNW 9.2 mph - N/A   Unknown
4:35 PM 74.7 °F 48.9 °F 40% 29.90 in 10.0 mi NNW 9.2 mph - N/A   Unknown
4:55 PM 74.5 °F 49.8 °F 42% 29.90 in 10.0 mi NW 5.8 mph - N/A   Unknown
5:15 PM 73.8 °F 49.3 °F 42% 29.90 in 10.0 mi NW 8.1 mph - N/A   Unknown
5:35 PM 72.7 °F 49.1 °F 43% 29.90 in 10.0 mi NW 6.9 mph - N/A   Unknown
5:55 PM 72.0 °F 49.8 °F 46% 29.90 in 10.0 mi NNW 8.1 mph - N/A   Unknown
6:15 PM 71.4 °F 50.0 °F 47% 29.90 in 10.0 mi NW 6.9 mph - N/A   Unknown
6:35 PM 69.8 °F 51.1 °F 51% 29.90 in 10.0 mi NNW 3.5 mph - N/A   Unknown
6:55 PM 66.4 °F 53.4 °F 63% 29.90 in 10.0 mi Calm Calm - N/A   Unknown
7:15 PM 62.6 °F 55.0 °F 76% 29.90 in 10.0 mi Calm Calm - N/A   Unknown
7:35 PM 61.9 °F 54.7 °F 77% 29.91 in 10.0 mi Calm Calm - N/A   Unknown
7:55 PM 59.9 °F 53.6 °F 80% 29.91 in 10.0 mi Calm Calm - N/A   Unknown
8:15 PM 59.0 °F 53.1 °F 81% 29.92 in 10.0 mi Calm Calm - N/A   Unknown
8:35 PM 57.6 °F 53.6 °F 87% 29.92 in 10.0 mi Calm Calm - N/A   Unknown
8:55 PM 57.4 °F 53.6 °F 87% 29.93 in 10.0 mi Calm Calm - N/A   Unknown
9:15 PM 56.3 °F 53.2 °F 89% 29.93 in 10.0 mi Calm Calm - N/A   Unknown
9:35 PM 55.8 °F 52.9 °F 90% 29.93 in 10.0 mi Calm Calm - N/A   Unknown
9:55 PM 55.4 °F 52.7 °F 91% 29.93 in 10.0 mi Calm Calm - N/A   Unknown
10:15 PM 54.7 °F 52.0 °F 91% 29.93 in 10.0 mi Calm Calm - N/A   Unknown
10:35 PM 54.5 °F 52.0 °F 91% 29.93 in 10.0 mi Calm Calm - N/A   Unknown
10:55 PM 54.5 °F 51.8 °F 91% 29.94 in 10.0 mi Calm Calm - N/A   Unknown
11:15 PM 53.8 °F 51.6 °F 92% 29.94 in 10.0 mi Calm Calm - N/A   Unknown
11:35 PM 53.6 °F 51.3 °F 92% 29.94 in 10.0 mi Calm Calm - N/A   Unknown
11:55 PM 52.9 °F 50.9 °F 93% 29.94 in 10.0 mi Calm Calm - N/A   Unknown